Overview Statistics Trail Chart Weather Telemetry Raw packets
 

This is the latest recevied weather packets stored in our database for station/object JA0BES-13. If no packets are shown the sender has not sent any weather packets the latest 10 day(s).

<< 16 17 18 19 20 21 22 >>
Time Temp. Humidity Pressure Rain* Wind** Luminosity Snow
1788257204 28.33° C 100% 1014.2 hPa 0 mm - - -
1788256604 28.89° C 100% 1014.1 hPa 0 mm - - -
1788256003 28.89° C 100% 1013.9 hPa 0 mm - - -
1788255403 29.44° C 99% 1013.7 hPa 0 mm - - -
1788254803 29.44° C 99% 1014 hPa 0 mm - - -
1788254203 30° C 97% 1013.8 hPa 0 mm - - -
1788253602 30° C 95% 1014 hPa 0 mm - - -
1788253002 30° C 94% 1013.8 hPa 0 mm - - -
1788252401 30.56° C 92% 1013.4 hPa 0 mm - - -
1788251801 31.11° C 89% 1013.1 hPa 0 mm - - -
1788251201 32.22° C 86% 1013 hPa 0 mm - - -
1788250600 32.22° C 85% 1013.1 hPa 0 mm - - -
1788250000 32.78° C 84% 1013 hPa 0 mm - - -
1788249400 32.78° C 83% 1013 hPa 0 mm - - -
1788248799 33.33° C 81% 1012.9 hPa 0 mm - - -
1788248199 33.89° C 80% 1012.8 hPa 0 mm - - -
1788247598 33.89° C 79% 1012.5 hPa 0 mm - - -
1788246998 34.44° C 78% 1012.5 hPa 0 mm - - -
1788246398 35° C 76% 1012.6 hPa 0 mm - - -
1788245798 35° C 76% 1012.4 hPa 0 mm - - -
1788245197 35.56° C 76% 1012.2 hPa 0 mm - - -
1788244597 35.56° C 78% 1012.3 hPa 0 mm - - -
1788243996 35.56° C 78% 1012.4 hPa 0 mm - - -
1788243396 36.11° C 79% 1012.3 hPa 0 mm - - -
1788242796 36.67° C 77% 1012 hPa 0 mm - - -

* Rain since midnight (hover to see other rain measurements)
** Current wind speed in m/s (hover to see current wind gust speed)